EZY79PL EGPH-EGSS

Flight info

Callsign EZY79PL
Flight time 0h 55m
Altitude 33000
Route GOSAM P600 FENIK L612 ELBUS UL612 LISTO
Aircraft A20N/M-SDE2E3FGHIJ1RWXYZ/LB1

Departure

Time 2026-05-05 21:15
Airport Edinburgh Airport (EGPH)

Arrival

Time 2026-05-05 22:11
Airport London Stansted Airport (EGSS)
Time Latitude Longitude Altitude Speed Heading
2026-05-05 20:41 55.94835 -3.35808 112 ft 0 kts 206°
2026-05-05 20:53 55.94835 -3.35809 112 ft 0 kts 206°
2026-05-05 20:54 55.94835 -3.35808 112 ft 0 kts 206°
2026-05-05 21:02 55.94848 -3.35796 109 ft 4 kts 210°
2026-05-05 21:02 55.94871 -3.35770 108 ft 4 kts 221°
2026-05-05 21:02 55.94888 -3.35735 112 ft 4 kts 257°
2026-05-05 21:02 55.94888 -3.35710 111 ft 1 kts 298°
2026-05-05 21:06 55.94892 -3.35725 112 ft 4 kts 298°
2026-05-05 21:06 55.94918 -3.35808 112 ft 11 kts 301°
2026-05-05 21:06 55.94988 -3.35858 111 ft 12 kts 14°
2026-05-05 21:07 55.95061 -3.35892 112 ft 13 kts 301°
2026-05-05 21:07 55.95105 -3.36051 111 ft 16 kts 287°
2026-05-05 21:07 55.95138 -3.36249 112 ft 16 kts 279°
2026-05-05 21:07 55.95090 -3.36413 111 ft 16 kts 236°
2026-05-05 21:08 55.95028 -3.36598 111 ft 19 kts 239°
2026-05-05 21:08 55.94954 -3.36816 110 ft 22 kts 238°
2026-05-05 21:08 55.94870 -3.37059 111 ft 24 kts 238°
2026-05-05 21:08 55.94780 -3.37323 110 ft 26 kts 240°
2026-05-05 21:09 55.94693 -3.37580 112 ft 25 kts 237°
2026-05-05 21:09 55.94603 -3.37854 111 ft 26 kts 239°
2026-05-05 21:09 55.94514 -3.38108 109 ft 26 kts 238°
2026-05-05 21:09 55.94426 -3.38372 112 ft 25 kts 239°
2026-05-05 21:10 55.94337 -3.38634 112 ft 21 kts 239°
2026-05-05 21:10 55.94282 -3.38805 114 ft 8 kts 257°
2026-05-05 21:10 55.94304 -3.38894 112 ft 8 kts 345°
2026-05-05 21:10 55.94324 -3.38907 114 ft 0 kts 334°
2026-05-05 21:12 55.94324 -3.38908 114 ft 1 kts 334°
2026-05-05 21:13 55.94377 -3.38953 112 ft 17 kts 334°
2026-05-05 21:13 55.94429 -3.38935 113 ft 7 kts 58°
2026-05-05 21:13 55.94431 -3.38929 114 ft 0 kts 58°
2026-05-05 21:14 55.94476 -3.38793 114 ft 43 kts 59°
2026-05-05 21:15 55.94744 -3.38005 114 ft 104 kts 58°
2026-05-05 21:15 55.95207 -3.36665 156 ft 148 kts 59°
2026-05-05 21:15 55.95760 -3.35048 716 ft 157 kts 61°
2026-05-05 21:15 55.96327 -3.33348 1386 ft 163 kts 59°
2026-05-05 21:16 55.97087 -3.31790 1956 ft 171 kts 43°
2026-05-05 21:16 55.98111 -3.30509 2267 ft 188 kts 36°
2026-05-05 21:16 55.99291 -3.29413 2798 ft 197 kts 17°
2026-05-05 21:16 56.00744 -3.29580 3290 ft 226 kts 341°
2026-05-05 21:17 56.02070 -3.31323 3930 ft 253 kts 310°
2026-05-05 21:17 56.02795 -3.34266 4805 ft 266 kts 280°
2026-05-05 21:17 56.02746 -3.37616 5416 ft 273 kts 262°
2026-05-05 21:17 56.02381 -3.40921 6611 ft 265 kts 262°
2026-05-05 21:18 56.02022 -3.44130 7717 ft 267 kts 258°
2026-05-05 21:18 56.01491 -3.47354 8655 ft 273 kts 253°
2026-05-05 21:18 56.00695 -3.50453 9637 ft 278 kts 244°
2026-05-05 21:18 55.99751 -3.53512 10523 ft 285 kts 243°
2026-05-05 21:19 55.98741 -3.56727 10943 ft 308 kts 243°
2026-05-05 21:19 55.97658 -3.60178 11327 ft 328 kts 243°
2026-05-05 21:19 55.96535 -3.63767 12127 ft 333 kts 243°
2026-05-05 21:19 55.95330 -3.67271 13045 ft 338 kts 233°
2026-05-05 21:20 55.93516 -3.69997 13911 ft 348 kts 212°
2026-05-05 21:20 55.91347 -3.71986 14675 ft 353 kts 208°
2026-05-05 21:20 55.89234 -3.73774 15419 ft 355 kts 208°
2026-05-05 21:20 55.86987 -3.75653 16186 ft 359 kts 208°
2026-05-05 21:21 55.84714 -3.77574 16936 ft 362 kts 208°
2026-05-05 21:21 55.82436 -3.79522 17705 ft 365 kts 208°
2026-05-05 21:21 55.80139 -3.81496 18440 ft 368 kts 208°
2026-05-05 21:21 55.77821 -3.83492 19088 ft 371 kts 208°
2026-05-05 21:22 55.75494 -3.85493 19729 ft 374 kts 208°
2026-05-05 21:22 55.73131 -3.87523 20361 ft 378 kts 208°
2026-05-05 21:22 55.70762 -3.89557 20984 ft 381 kts 208°
2026-05-05 21:22 55.68361 -3.91615 21605 ft 384 kts 208°
2026-05-05 21:23 55.65947 -3.93681 22223 ft 387 kts 208°
2026-05-05 21:23 55.63509 -3.95765 22834 ft 391 kts 208°
2026-05-05 21:23 55.61052 -3.97862 23433 ft 394 kts 208°
2026-05-05 21:23 55.58570 -3.99978 23982 ft 397 kts 208°
2026-05-05 21:24 55.56112 -4.02087 24494 ft 399 kts 213°
2026-05-05 21:24 55.53620 -4.04428 24768 ft 405 kts 216°
2026-05-05 21:24 55.51016 -4.06408 25111 ft 409 kts 208°
2026-05-05 21:24 55.48280 -4.07777 25638 ft 410 kts 191°
2026-05-05 21:25 55.45418 -4.07924 26141 ft 419 kts 174°
2026-05-05 21:25 55.42566 -4.06598 26483 ft 430 kts 158°
2026-05-05 21:25 55.40013 -4.03912 26899 ft 439 kts 142°
2026-05-05 21:25 55.37704 -4.00245 27307 ft 443 kts 139°
2026-05-05 21:26 55.35382 -3.96809 27750 ft 443 kts 144°
2026-05-05 21:26 55.32824 -3.93763 28163 ft 443 kts 150°
2026-05-05 21:26 55.30140 -3.91108 28552 ft 444 kts 154°
2026-05-05 21:26 55.27375 -3.88666 28932 ft 446 kts 156°
2026-05-05 21:27 55.24572 -3.86314 29329 ft 448 kts 157°
2026-05-05 21:27 55.21744 -3.83979 29693 ft 450 kts 157°
2026-05-05 21:27 55.18901 -3.81636 30071 ft 453 kts 157°
2026-05-05 21:27 55.16038 -3.79271 30394 ft 455 kts 157°
2026-05-05 21:28 55.13175 -3.76902 30734 ft 457 kts 157°
2026-05-05 21:28 55.10331 -3.74546 31053 ft 459 kts 157°
2026-05-05 21:28 55.07447 -3.72158 31418 ft 459 kts 157°
2026-05-05 21:28 55.04588 -3.69794 31837 ft 459 kts 157°
2026-05-05 21:29 55.01708 -3.67414 32254 ft 458 kts 157°
2026-05-05 21:29 54.98838 -3.65045 32681 ft 456 kts 157°
2026-05-05 21:29 54.95968 -3.62679 32910 ft 455 kts 157°
2026-05-05 21:29 54.93111 -3.60328 33016 ft 454 kts 157°
2026-05-05 21:30 54.87462 -3.55693 33083 ft 454 kts 157°
2026-05-05 21:30 54.81738 -3.51007 33080 ft 454 kts 157°
2026-05-05 21:31 54.76046 -3.46360 33088 ft 454 kts 157°
2026-05-05 21:31 54.70325 -3.41702 33078 ft 454 kts 158°
2026-05-05 21:32 54.64607 -3.37047 33076 ft 454 kts 158°
2026-05-05 21:32 54.58881 -3.32424 33081 ft 454 kts 158°
2026-05-05 21:33 54.53158 -3.27810 33075 ft 454 kts 158°
2026-05-05 21:33 54.47436 -3.23205 33074 ft 454 kts 158°
2026-05-05 21:34 54.41747 -3.18641 33082 ft 454 kts 158°
2026-05-05 21:34 54.35981 -3.14029 33081 ft 454 kts 158°
2026-05-05 21:35 54.30254 -3.09463 33080 ft 454 kts 157°
2026-05-05 21:35 54.24530 -3.04912 33075 ft 453 kts 157°
2026-05-05 21:36 54.18817 -3.00384 33068 ft 453 kts 157°
2026-05-05 21:36 54.13052 -2.95828 33068 ft 453 kts 158°
2026-05-05 21:37 54.07334 -2.91323 33068 ft 452 kts 158°
2026-05-05 21:37 54.01625 -2.86838 33065 ft 452 kts 158°
2026-05-05 21:38 53.95921 -2.82371 33056 ft 452 kts 158°
2026-05-05 21:38 53.90215 -2.77916 33064 ft 452 kts 158°
2026-05-05 21:39 53.85406 -2.74171 33057 ft 452 kts 158°
2026-05-05 21:39 53.79683 -2.69726 33061 ft 453 kts 158°
2026-05-05 21:40 53.73957 -2.65293 33060 ft 453 kts 158°
2026-05-05 21:40 53.68229 -2.60871 33064 ft 453 kts 158°
2026-05-05 21:41 53.62452 -2.56426 33064 ft 453 kts 158°
2026-05-05 21:41 53.56709 -2.52020 33062 ft 453 kts 158°
2026-05-05 21:42 53.50969 -2.47629 33058 ft 453 kts 158°
2026-05-05 21:42 53.45230 -2.43253 33055 ft 453 kts 158°
2026-05-05 21:43 53.39525 -2.38915 33050 ft 453 kts 158°
2026-05-05 21:43 53.33791 -2.34568 33049 ft 453 kts 158°
2026-05-05 21:44 53.28052 -2.30230 33050 ft 452 kts 158°
2026-05-05 21:44 53.22316 -2.25907 33048 ft 452 kts 158°
2026-05-05 21:45 53.16544 -2.21564 33044 ft 452 kts 157°
2026-05-05 21:45 53.11198 -2.16166 33042 ft 455 kts 145°
2026-05-05 21:46 53.06066 -2.09859 33041 ft 455 kts 145°
2026-05-05 21:46 53.00953 -2.03621 33036 ft 455 kts 145°
2026-05-05 21:47 52.95835 -1.97418 33036 ft 456 kts 145°
2026-05-05 21:47 52.90707 -1.91225 32807 ft 457 kts 145°
2026-05-05 21:48 52.88205 -1.88209 32552 ft 457 kts 145°
2026-05-05 21:48 52.85601 -1.85075 32280 ft 456 kts 145°
2026-05-05 21:48 52.83035 -1.81991 32019 ft 457 kts 145°
2026-05-05 21:48 52.80454 -1.78894 31578 ft 459 kts 145°
2026-05-05 21:49 52.77864 -1.75792 30817 ft 462 kts 145°
2026-05-05 21:49 52.75237 -1.72705 29909 ft 464 kts 148°
2026-05-05 21:49 52.72494 -1.70066 29297 ft 456 kts 154°
2026-05-05 21:49 52.69669 -1.67647 28547 ft 453 kts 154°
2026-05-05 21:50 52.66898 -1.65266 28040 ft 444 kts 154°
2026-05-05 21:50 52.64180 -1.62930 27472 ft 438 kts 154°
2026-05-05 21:50 52.61498 -1.60624 26885 ft 432 kts 153°
2026-05-05 21:50 52.58991 -1.57858 25890 ft 438 kts 141°
2026-05-05 21:51 52.56864 -1.54248 24600 ft 444 kts 131°
2026-05-05 21:51 52.54935 -1.50288 23579 ft 441 kts 129°
2026-05-05 21:51 52.53063 -1.46337 22547 ft 435 kts 129°
2026-05-05 21:51 52.51212 -1.42466 21580 ft 427 kts 130°
2026-05-05 21:52 52.47548 -1.34970 19679 ft 416 kts 130°
2026-05-05 21:52 52.45754 -1.31350 18778 ft 410 kts 130°
2026-05-05 21:52 52.43959 -1.27740 17818 ft 405 kts 130°
2026-05-05 21:53 52.42184 -1.24181 16828 ft 400 kts 130°
2026-05-05 21:53 52.40434 -1.20680 15856 ft 395 kts 130°
2026-05-05 21:53 52.38701 -1.17214 14908 ft 392 kts 130°
2026-05-05 21:53 52.36983 -1.13784 14005 ft 388 kts 130°
2026-05-05 21:54 52.35279 -1.10391 13052 ft 383 kts 130°
2026-05-05 21:54 52.33595 -1.07043 12142 ft 379 kts 129°
2026-05-05 21:54 52.31933 -1.03740 11278 ft 373 kts 129°
2026-05-05 21:54 52.30295 -1.00485 10488 ft 368 kts 129°
2026-05-05 21:55 52.28712 -0.97343 10208 ft 347 kts 128°
2026-05-05 21:55 52.27222 -0.94388 10016 ft 327 kts 128°
2026-05-05 21:55 52.25823 -0.91617 9812 ft 309 kts 128°
2026-05-05 21:55 52.24481 -0.88959 9343 ft 301 kts 128°
2026-05-05 21:56 52.23158 -0.86341 8748 ft 297 kts 128°
2026-05-05 21:56 52.21849 -0.83751 8148 ft 295 kts 128°
2026-05-05 21:56 52.20549 -0.81183 7604 ft 291 kts 129°
2026-05-05 21:56 52.19267 -0.78657 7063 ft 288 kts 129°
2026-05-05 21:57 52.17999 -0.76159 6528 ft 284 kts 129°
2026-05-05 21:57 52.16745 -0.73694 5973 ft 281 kts 128°
2026-05-05 21:57 52.15503 -0.71259 5449 ft 277 kts 128°
2026-05-05 21:57 52.14295 -0.68894 5105 ft 267 kts 128°
2026-05-05 21:58 52.13128 -0.66610 4756 ft 258 kts 127°
2026-05-05 21:58 52.11978 -0.64359 4406 ft 254 kts 127°
2026-05-05 21:58 52.10896 -0.62236 4153 ft 250 kts 127°
2026-05-05 21:58 52.09758 -0.59999 4066 ft 265 kts 127°
2026-05-05 21:59 52.08587 -0.57705 4003 ft 261 kts 127°
2026-05-05 21:59 52.07422 -0.55428 4003 ft 262 kts 127°
2026-05-05 21:59 52.06258 -0.53161 4006 ft 261 kts 127°
2026-05-05 21:59 52.05097 -0.50897 4002 ft 258 kts 127°
2026-05-05 22:00 52.03973 -0.48715 3996 ft 244 kts 127°
2026-05-05 22:00 52.02921 -0.46675 4000 ft 228 kts 127°
2026-05-05 22:00 52.01933 -0.44759 4002 ft 218 kts 127°
2026-05-05 22:00 52.00923 -0.42786 4001 ft 232 kts 127°
2026-05-05 22:01 51.99907 -0.40805 3997 ft 230 kts 127°
2026-05-05 22:01 51.98863 -0.38777 3999 ft 232 kts 127°
2026-05-05 22:01 51.97831 -0.36773 4004 ft 232 kts 127°
2026-05-05 22:01 51.96792 -0.34759 3991 ft 233 kts 128°
2026-05-05 22:02 51.95751 -0.32742 4001 ft 233 kts 127°
2026-05-05 22:02 51.94698 -0.30709 4000 ft 232 kts 127°
2026-05-05 22:02 51.93661 -0.28704 4000 ft 232 kts 127°
2026-05-05 22:02 51.92623 -0.26699 4006 ft 232 kts 127°
2026-05-05 22:03 51.91586 -0.24701 4002 ft 232 kts 127°
2026-05-05 22:03 51.90545 -0.22694 4005 ft 232 kts 127°
2026-05-05 22:03 51.89507 -0.20697 4005 ft 232 kts 127°
2026-05-05 22:03 51.88478 -0.18719 4002 ft 232 kts 127°
2026-05-05 22:04 51.87428 -0.16699 4004 ft 232 kts 127°
2026-05-05 22:04 51.86386 -0.14697 4003 ft 232 kts 127°
2026-05-05 22:04 51.85443 -0.12889 3999 ft 222 kts 127°
2026-05-05 22:04 51.84478 -0.11046 3993 ft 208 kts 127°
2026-05-05 22:05 51.83528 -0.09220 4037 ft 214 kts 127°
2026-05-05 22:05 51.82581 -0.07402 3947 ft 209 kts 127°
2026-05-05 22:05 51.81646 -0.05610 3690 ft 208 kts 127°
2026-05-05 22:05 51.80736 -0.03872 3604 ft 198 kts 127°
2026-05-05 22:06 51.79863 -0.02204 3427 ft 193 kts 127°
2026-05-05 22:06 51.79029 -0.00525 3169 ft 190 kts 115°
2026-05-05 22:06 51.78671 0.01435 3103 ft 184 kts 98°
2026-05-05 22:06 51.78431 0.03499 3015 ft 186 kts 98°
2026-05-05 22:07 51.78211 0.05548 2999 ft 185 kts 92°
2026-05-05 22:07 51.78424 0.07550 2981 ft 182 kts 65°
2026-05-05 22:07 51.79123 0.09248 2793 ft 182 kts 48°
2026-05-05 22:07 51.79988 0.10661 2545 ft 170 kts 43°
2026-05-05 22:08 51.80814 0.11882 2307 ft 153 kts 44°
2026-05-05 22:08 51.81547 0.12992 2120 ft 136 kts 43°
2026-05-05 22:08 51.82220 0.14006 1940 ft 133 kts 43°
2026-05-05 22:08 51.82890 0.15017 1756 ft 131 kts 43°
2026-05-05 22:09 51.83558 0.16024 1577 ft 132 kts 43°
2026-05-05 22:09 51.84229 0.17037 1393 ft 133 kts 42°
2026-05-05 22:09 51.84908 0.18059 1196 ft 134 kts 43°
2026-05-05 22:09 51.85589 0.19094 1000 ft 134 kts 42°
2026-05-05 22:10 51.86258 0.20128 788 ft 135 kts 42°
2026-05-05 22:10 51.86938 0.21154 613 ft 130 kts 40°
2026-05-05 22:10 51.87578 0.22092 415 ft 121 kts 41°
2026-05-05 22:10 51.87988 0.22716 361 ft 118 kts 41°
2026-05-05 22:11 51.88577 0.23593 335 ft 32 kts 43°
2026-05-05 22:11 51.88722 0.23810 336 ft 26 kts 44°
2026-05-05 22:11 51.88826 0.24016 334 ft 21 kts 60°
2026-05-05 22:11 51.88879 0.24201 339 ft 15 kts 75°
2026-05-05 22:12 51.88908 0.24342 339 ft 11 kts 83°
2026-05-05 22:12 51.88916 0.24416 338 ft 9 kts 79°
2026-05-05 22:12 51.88913 0.24480 351 ft 2 kts 108°
2026-05-05 22:12 51.88910 0.24546 346 ft 14 kts 76°
2026-05-05 22:13 51.88973 0.24661 351 ft 14 kts 39°
2026-05-05 22:13 51.89047 0.24766 353 ft 14 kts 48°
2026-05-05 22:13 51.89117 0.24886 351 ft 15 kts 45°
2026-05-05 22:13 51.89194 0.25009 346 ft 16 kts 45°
2026-05-05 22:14 51.89238 0.25133 348 ft 10 kts 96°
2026-05-05 22:14 51.89194 0.25259 349 ft 12 kts 118°
2026-05-05 22:14 51.89140 0.25383 350 ft 14 kts 127°
2026-05-05 22:14 51.89080 0.25503 348 ft 11 kts 130°
2026-05-05 22:15 51.89041 0.25568 349 ft 0 kts 134°
2026-05-05 22:15 51.89041 0.25571 350 ft 0 kts 117°
2026-05-05 22:15 51.89044 0.25580 351 ft 2 kts 71°
2026-05-05 22:15 51.89064 0.25616 350 ft 4 kts 45°
2026-05-05 22:16 51.89084 0.25646 350 ft 0 kts 42°
2026-05-05 22:16 51.89085 0.25648 350 ft 0 kts 42°